Regional Weather Roundup
Issued by NWS

Home | Current Version | Previous Version | Graphics & Text | Print | Product List | Glossary On
Versions: 1 2 3 4 5 6 7 8 9 10 11 12 13 14 15 16 17 18 19 20 21 22 23 24 25 26 27 28 29 30 31 32 33 34 35 36 37 38 39 40 41 42 43 44 45 46 47 48 49 50
000
ASUS45 KPSR 030000
RWRAZ

ARIZONA HOURLY REGIONAL WEATHER ROUNDUP
NATIONAL WEATHER SERVICE PHOENIX AZ
500 PM MST THU JUL 02 2015

NOTE: FAIR INDICATES FEW OR NO CLOUDS BELOW 12,000 FEET WITH NO
SIGNIFICANT WEATHER AND/OR OBSTRUCTIONS TO VISIBILITY.

AZZ001>003-036-030100-
NORTHWEST ARIZONA

CITY           SKY/WX    TMP DP  RH WIND       PRES   REMARKS
KINGMAN        SUNNY     98  49  18 SW14      29.96F
6HR MIN TEMP:  91; 6HR MAX TEMP:  99;

$$

AZZ004>008-015-016-018-030100-
NORTH CENTRAL ARIZONA

CITY           SKY/WX    TMP DP  RH WIND       PRES   REMARKS
GRAND CANYON   PTSUNNY   84  48  28 SW7       30.19F
6HR MIN TEMP:  81; 6HR MAX TEMP:  99;

WILLIAMS       PTSUNNY   81  59  47 CALM      30.26F
PRESCOTT       SUNNY     90  53  28 W12       30.06F
6HR MIN TEMP:  83; 6HR MAX TEMP:  91;

FLAGSTAFF      NOT AVBL
PAYSON         MOSUNNY   91  52  25 W9G18     30.08F
PAGE           PTSUNNY   96  50  20 NW15G24   29.96F
6HR MIN TEMP:  91; 6HR MAX TEMP: 102;

$$

AZZ009>014-017-030100-
NORTHEAST ARIZONA

CITY           SKY/WX    TMP DP  RH WIND       PRES   REMARKS
WINSLOW        NOT AVBL
SAINT JOHNS    CLOUDY    87  49  26 NW8       30.08F
6HR MIN TEMP:  77; 6HR MAX TEMP:  87;

WINDOW ROCK    MOSUNNY   91  46  21 N14G21    30.14
6HR MIN TEMP:  84; 6HR MAX TEMP:  93;

SHOW LOW       PTSUNNY   84  45  24 N10       30.15F
$$

AZZ023-030100-
GREATER PHOENIX AREA

CITY           SKY/WX    TMP DP  RH WIND       PRES   REMARKS
PHOENIX        MOSUNNY  105  53  17 SW13      29.74F HX 103
6HR MIN TEMP:  97; 6HR MAX TEMP: 106;

GLENDALE       MOSUNNY  106  54  17 S15G24    29.76F HX 104
LUKE AFB       SUNNY    104  55  20 SW17      29.73F HX 103
DEER VALLEY    SUNNY    104  54  19 SW13G26   29.76F HX 102
6HR MIN TEMP:  95; 6HR MAX TEMP: 105;

SCOTTSDALE     SUNNY    103  55  20 W10G18    29.78F HX 101
6HR MIN TEMP:  96; 6HR MAX TEMP: 104;

MESA-FALCON    MOSUNNY  104  55  20 W17       29.77F HX 103
MESA-GATEWAY   MOSUNNY  102  57  22 NW14G26   29.78F HX 101
CHANDLER       MOSUNNY  104  55  20 W14       29.76F HX 103
$$

AZZ027-028-030100-
SOUTHWEST MARICOPA COUNTY AND PINAL COUNTY

CITY           SKY/WX    TMP DP  RH WIND       PRES   REMARKS
CASA GRANDE    SUNNY    102  55  21 NW14G21   29.78F HX 101
6HR MIN TEMP:  95; 6HR MAX TEMP: 104;

GILA BEND      FAIR     105  52  17 W15G22    29.74F HX 102
6HR MIN TEMP:  96; 6HR MAX TEMP: 105;

$$

AZZ503-504-507>509-030100-
SOUTHEAST ARIZONA

CITY           SKY/WX    TMP DP  RH WIND       PRES   REMARKS
TUCSON         PTSUNNY  100  54  21 W13G21    29.89F
6HR MIN TEMP:  92; 6HR MAX TEMP: 101;

DAVIS-MONTHAN  MOSUNNY   97  58  26 N12       29.87F
6HR MIN TEMP:  90; 6HR MAX TEMP:  98;

RYAN FIELD     SUNNY    100  57  23 NW9G20    29.87F
NOGALES        CLOUDY    91  58  32 NW7       29.99F
6HR MIN TEMP:  85; 6HR MAX TEMP:  93;

SIERRA VISTA   PTSUNNY   88  53  30 NW20      30.05F
6HR MIN TEMP:  84; 6HR MAX TEMP:  90;

SAFFORD        MOSUNNY  102  53  19 W22G29    29.82F HX 100
6HR MIN TEMP:  95; 6HR MAX TEMP: 106;

$$

AZZ020-021-025-026-031-030100-
SOUTHWEST ARIZONA

CITY           SKY/WX    TMP DP  RH WIND       PRES   REMARKS
YUMA           NOT AVBL
$$

CAZ031-033-041-043-047-048-061-030100-
SOUTHERN CALIFORNIA

CITY           SKY/WX    TMP DP  RH WIND       PRES   REMARKS
DOWNTOWN L.A.  SUNNY     79  61  53 W6        29.92S
6HR MIN TEMP:  77; 6HR MAX TEMP:  83;

L.A. AIRPORT   MOSUNNY   71  63  75 SW16      29.94F
6HR MIN TEMP:  71; 6HR MAX TEMP:  75;

SAN DIEGO      MOSUNNY   75  63  66 W9        29.95F
6HR MIN TEMP:  73; 6HR MAX TEMP:  79;

BURBANK        SUNNY     89  53  29 S10       29.91F
6HR MIN TEMP:  79; 6HR MAX TEMP:  90;

ONTARIO        MOSUNNY   91  54  28 W14G22    29.91F
6HR MIN TEMP:  84; 6HR MAX TEMP:  93;

RIVERSIDE      SUNNY     93  49  22 W15G21    29.90F
6HR MIN TEMP:  85; 6HR MAX TEMP:  95;

PALM SPRINGS   SUNNY    108  56  18 NW18G28   29.76F HX 107
6HR MIN TEMP:  96; 6HR MAX TEMP: 109;

EL CENTRO NAS  MOSUNNY  107  56  18 E8        29.72F HX 106
6HR MIN TEMP:  96; 6HR MAX TEMP: 109;

IMPERIAL       SUNNY    107  58  20 VRB7      29.70F HX 107
6HR MIN TEMP:  96; 6HR MAX TEMP: 108;

BLYTHE         SUNNY    106  62  23 VRB6      29.72F HX 108
6HR MIN TEMP:  95; 6HR MAX TEMP: 106;

$$

NVZ020-UTZ003-030100-
SOUTHERN NEVADA-UTAH

CITY           SKY/WX    TMP DP  RH WIND       PRES   REMARKS
LAS VEGAS      NOT AVBL
SALT LAKE CITY MOSUNNY   97  38  13 N9        29.98F
6HR MIN TEMP:  92; 6HR MAX TEMP:  98;

$$

NMZ009-TXZ055-030100-
NEW MEXICO-WEST TEXAS

CITY           SKY/WX    TMP DP  RH WIND       PRES   REMARKS
ALBUQUERQUE    TSTM      76  57  51 E33G43    30.07R
6HR MIN TEMP:  76; 6HR MAX TEMP:  95; 6HR PCP: TRACE;

EL PASO        PTSUNNY  101  47  16 SW8       29.88F
6HR MIN TEMP:  91; 6HR MAX TEMP: 101;

$$


........................KEY........................
SKY/WX - SKY CONDITION/WEATHER
TMP    - TEMPERATURE IN FAHRENHEIT
DP     - DEW POINT IN FAHRENHEIT
RH     - RELATIVE HUMIDITY IN PERCENT
WIND   - DIRECTION AND SPEED IN MILES PER HOUR (MPH)
VRB    - VARIABLE WIND DIRECTION
PRES   - MEAN SEA LEVEL PRESSURE IN INCHES OF MERCURY
         F - FALLING PRESSURE   R - RISING PRESSURE
         S - STEADY PRESSURE
VSB    - VISIBILITY IN MILES
HX     - HEAT INDEX IN FAHRENHEIT
WCI    - WIND CHILL INDEX IN FAHRENHEIT
TC     - TEMPERATURE IN CELSIUS WHICH IS ALSO KNOWN AS
         TEMPERATURE IN CENTIGRADE
AFB    - AIR FORCE BASE
         LUKE AFB IS LUKE AIR FORCE BASE
         DAVIS-MONTHAN IS DAVIS-MONTHAN AIR FORCE BASE
NAS    - NAVAL AIR STATION
         EL CENTRO NAS IS EL CENTRO NAVAL AIR STATION
N/A    - NOT AVAILABLE




USA.gov is the U.S. government's official web portal to all federal, state and local government web resources and services.